Weather History for Morristown, NJ

Change the Weather History Date:

Wednesday, May 8, 2013

  Actual Average Record
Temperature  
Mean Temperature 60 °F -  
Max Temperature 66 °F 68 °F 93 °F (1936)
Min Temperature 53 °F 42 °F 28 °F (1974)
Degree Days  
Heating Degree Days 6    
Growing Degree Days 10 (Base 50)    
Moisture  
Dew Point 58 °F    
Average Humidity 88    
Maximum Humidity 94    
Minimum Humidity 77    
Precipitation  
Precipitation 0.03 in - - ()
Sea Level Pressure  
Sea Level Pressure 30.04 in    
Wind  
Wind Speed 4 mph (ENE)    
Max Wind Speed 10 mph    
Max Gust Speed 16 mph    
Visibility 7 miles    
Events Rain , Thunderstorm    
Averages and records for this station are not official NWS values.
T = Trace of Precipitation, MM = Missing Value Source: NWS Daily Summary

Daily Weather History Graph

Daily Weather History Graph

Search for Another Location

Airport:

Trip Planner

Search our weather history database for the weather conditions in past years. The results will help you decide how hot, cold, wet, or windy it might be!

Date:

Astronomy

May. 08, 2013 Rise Set
Actual Time 5:47 AM EDT 8:01 PM EDT
Civil Twilight 5:16 AM EDT 8:32 PM EDT
Nautical Twilight 4:39 AM EDT 9:09 PM EDT
Astronomical Twilight 3:58 AM EDT 9:51 PM EDT
Moon 4:54 AM EDT (5/8) 6:56 PM EDT (5/8)
Length of Visible Light 15h 15m
Length of Day
14h 14m
Waning Crescent, 2% of the Moon is Illuminated
May 8
Waning Crescent
May 9
New
May 18
First Quarter
May 25
Full
May 31
Last Quarter

Hourly Weather History & Observations

Time (EDT) Temp. Dew Point Humidity Pressure Visibility Wind Dir Wind Speed Gust Speed Precip Events Conditions
12:15 AM 64.4 °F 57.2 °F 77% 30.09 in 10.0 mi NNE 3.5 mph - N/A   Mostly Cloudy
12:35 AM 62.6 °F 57.2 °F 82% 30.09 in 10.0 mi NE 4.6 mph - N/A   Scattered Clouds
12:55 AM 62.6 °F 57.2 °F 82% 30.09 in 10.0 mi NE 3.5 mph - N/A   Mostly Cloudy
1:15 AM 64.4 °F 57.2 °F 77% 30.09 in 10.0 mi NE 3.5 mph - N/A   Overcast
1:35 AM 64.4 °F 57.2 °F 77% 30.08 in 10.0 mi East 3.5 mph - N/A   Overcast
1:55 AM 62.6 °F 57.2 °F 82% 30.08 in 10.0 mi Calm Calm - N/A Rain Light Rain
2:15 AM 62.6 °F 59.0 °F 88% 30.08 in 3.0 mi Calm Calm - N/A Rain Rain
2:35 AM 62.6 °F 59.0 °F 88% 30.06 in 7.0 mi NE 4.6 mph - N/A Rain Light Rain
2:55 AM 62.6 °F 59.0 °F 88% 30.06 in 10.0 mi NE 3.5 mph - N/A   Overcast
3:15 AM 62.6 °F 59.0 °F 88% 30.06 in 10.0 mi NE 4.6 mph - N/A   Drizzle
3:35 AM 62.6 °F 59.0 °F 88% 30.06 in 10.0 mi NE 3.5 mph - N/A   Drizzle
3:55 AM 62.6 °F 59.0 °F 88% 30.06 in 7.0 mi Calm Calm - N/A   Drizzle
4:15 AM 60.8 °F 59.0 °F 94% 30.05 in 10.0 mi NE 3.5 mph - N/A Rain Rain
4:35 AM 62.6 °F 59.0 °F 88% 30.05 in 10.0 mi NNE 3.5 mph - N/A   Overcast
4:55 AM 62.6 °F 59.0 °F 88% 30.05 in 10.0 mi Calm Calm - 0.01 in Rain Light Rain
5:15 AM 60.8 °F 59.0 °F 94% 30.04 in 10.0 mi North 3.5 mph - 0.01 in Rain Light Rain
5:35 AM 60.8 °F 59.0 °F 94% 30.05 in 10.0 mi NNE 3.5 mph - 0.01 in   Overcast
5:55 AM 60.8 °F 59.0 °F 94% 30.05 in 10.0 mi NNE 5.8 mph - 0.01 in   Overcast
6:15 AM 60.8 °F 59.0 °F 94% 30.06 in 7.0 mi NE 4.6 mph - 0.01 in   Overcast
6:35 AM 60.8 °F 59.0 °F 94% 30.06 in 7.0 mi NE 4.6 mph - 0.01 in Rain Rain
6:45 AM 59.0 °F 57.2 °F 94% 30.06 in 2.0 mi ENE 5.8 mph - N/A Rain Light Rain
7:45 AM 59.0 °F 57.2 °F 94% 30.06 in 2.2 mi NE 8.1 mph - N/A Rain Light Rain
8:10 AM 59.0 °F 57.2 °F 94% 30.08 in 2.0 mi ENE 6.9 mph - N/A Rain , Thunderstorm Thunderstorms and Rain
8:55 AM 59.0 °F 57.2 °F 94% 30.07 in 2.2 mi NNE 4.6 mph - N/A Rain Light Rain
9:22 AM 60.8 °F 59.0 °F 94% 30.06 in 5.0 mi NE 9.2 mph - N/A Rain Light Rain
9:45 AM 59.0 °F 57.2 °F 94% 30.06 in 7.0 mi East 4.6 mph - N/A   Overcast
10:45 AM 64.4 °F 59.0 °F 83% 30.06 in 10.0 mi East 6.9 mph - N/A   Overcast
11:45 AM 64.4 °F 59.0 °F 83% 30.04 in 10.0 mi ENE 6.9 mph 16.1 mph N/A   Overcast
12:52 PM 64.4 °F 59.0 °F 83% 30.01 in 1.5 mi South 10.4 mph 15.0 mph N/A Rain , Thunderstorm Thunderstorms and Rain
1:45 PM 62.6 °F 60.8 °F 94% 30.01 in 2.0 mi SSE 3.5 mph - N/A Rain Light Rain
2:20 PM 62.6 °F 60.8 °F 94% 30.00 in 2.2 mi SE 4.6 mph - N/A   Overcast
2:45 PM 62.6 °F 60.8 °F 94% 29.99 in 2.2 mi SE 9.2 mph - N/A   Overcast
3:45 PM 62.6 °F 60.8 °F 94% 29.99 in 2.5 mi SSE 6.9 mph - N/A   Overcast
4:45 PM 64.4 °F 60.8 °F 88% 29.98 in 3.0 mi SSE 6.9 mph - N/A   Mostly Cloudy
5:45 PM 66.2 °F 59.0 °F 78% 29.97 in 7.0 mi East 4.6 mph - N/A   Overcast
6:45 PM 62.6 °F 57.2 °F 82% 29.97 in 7.0 mi East 6.9 mph - N/A   Mostly Cloudy
7:45 PM 59.0 °F 53.6 °F 82% 29.99 in 10.0 mi East 5.8 mph - N/A   Scattered Clouds
8:45 PM 57.2 °F 51.8 °F 82% 30.00 in 10.0 mi East 5.8 mph - N/A   Partly Cloudy
9:45 PM 53.6 °F 51.8 °F 94% 30.02 in 10.0 mi Calm Calm - N/A   Partly Cloudy
10:55 PM 55.4 °F 53.6 °F 94% 30.01 in 10.0 mi Calm Calm - N/A   Mostly Cloudy
11:15 PM 55.4 °F 53.6 °F 94% 30.01 in 10.0 mi Calm Calm - N/A   Scattered Clouds
11:35 PM 55.4 °F 51.8 °F 88% 30.01 in 10.0 mi Calm Calm - N/A   Overcast
11:55 PM 55.4 °F 51.8 °F 88% 30.01 in 10.0 mi Calm Calm - N/A   Overcast